Theta_e
327 321 315 314 313 316 309 303 301 297 293 289 287 291 295 295 294 295 295 295 297 298 297 302 297 298 299 297 298 299 300 298 295 295 297 306 317 324 333 336 335 342 342 344 345 345 347 346 347 348 349 350 350 349 348 349 349 349 350 351 351 350 350 351 350 349 350 350 349 349 349 348 347 347 346 346 346 345 343 342 340 338 339 340 340 340 339 339 339 340 340 342 342 342 342 343 344
318 315 315 313 318 315 309 298 292 289 289 288 290 288 291 292 293 293 295 295 297 304 304 308 309 308 308 308 307 306 304 308 300 316 312 309 319 328 331 337 337 341 343 345 344 344 346 347 346 349 349 350 349 349 348 349 349 349 348 349 349 349 349 350 349 349 349 348 349 349 348 346 346 346 345 345 345 344 343 341 339 338 339 340 340 340 339 339 339 338 338 340 341 341 341 342 343
315 314 317 315 311 307 302 299 299 284 287 289 288 290 292 293 293 294 292 294 300 306 298 304 302 300 301 303 302 301 304 309 312 310 317 319 325 328 332 334 341 343 343 345 345 345 346 347 344 349 350 350 350 349 348 348 348 349 348 348 348 348 348 349 347 349 349 348 349 349 347 346 346 345 345 344 344 343 342 340 337 337 338 339 340 340 338 338 338 338 338 339 340 340 342 342 343
315 314 315 310 310 302 296 291 289 289 287 285 288 291 291 294 293 293 294 293 303 296 295 302 303 303 301 301 302 305 305 311 315 316 318 326 326 330 329 332 339 344 344 345 345 345 346 344 343 349 350 350 350 349 349 348 347 347 349 348 348 347 347 348 348 348 348 348 348 348 347 345 345 344 344 343 343 342 341 338 336 336 338 339 339 339 338 338 338 337 338 338 339 340 340 340 341
316 316 312 309 305 302 294 288 287 287 289 285 290 290 292 292 295 293 298 296 299 295 295 300 303 304 304 303 302 302 307 308 311 311 318 319 321 326 328 332 343 344 343 344 345 345 347 341 343 345 349 350 350 348 348 347 347 347 349 347 347 347 347 347 347 347 348 348 348 348 346 345 344 344 343 343 343 341 340 337 335 335 337 338 338 338 338 338 337 337 338 339 340 341 341 342 341
310 308 308 307 304 302 295 293 292 292 290 289 289 295 292 293 295 293 296 294 294 293 296 298 302 303 305 310 308 308 309 308 311 315 315 326 325 328 328 332 344 344 344 345 345 345 345 339 343 344 350 349 350 349 348 347 347 347 347 346 346 346 346 346 346 347 347 348 348 347 346 345 344 344 344 343 342 340 338 336 334 334 336 337 337 337 337 337 337 338 337 339 340 342 341 341 341
314 306 304 305 299 299 294 288 289 287 296 290 295 292 294 292 293 293 296 298 297 298 293 303 302 301 301 303 303 313 316 316 317 322 322 327 326 328 328 333 345 344 345 345 344 343 344 340 344 348 349 349 349 349 348 347 347 346 347 346 346 346 346 346 347 346 347 347 348 347 345 345 344 344 343 342 341 339 337 334 334 334 336 337 336 336 337 337 337 337 338 338 340 341 340 340 340
311 312 302 299 292 292 289 287 290 287 294 290 292 293 292 293 291 294 294 296 297 299 303 300 295 299 299 303 302 311 308 312 319 320 319 321 328 329 329 338 344 343 344 346 345 341 342 338 342 346 347 349 349 349 348 347 346 346 346 346 345 345 346 346 347 347 347 347 347 346 346 345 344 343 342 342 340 339 336 333 333 334 337 336 336 336 336 337 337 336 337 338 339 338 339 338 338
303 302 296 297 292 288 286 291 291 288 288 289 290 290 300 291 291 293 293 292 296 296 302 303 298 299 297 302 302 308 307 310 307 307 316 327 331 331 331 343 343 344 345 346 345 343 342 338 341 345 345 347 348 346 347 347 347 346 346 345 346 346 345 346 347 347 347 347 346 346 345 344 343 343 342 342 340 339 335 331 331 333 336 336 335 335 336 336 336 337 336 337 338 338 337 336 335
302 303 298 293 290 290 284 289 291 292 291 292 292 294 290 290 291 293 294 295 296 299 302 295 296 299 299 301 302 305 309 308 304 319 322 331 333 334 336 343 344 344 344 345 345 343 343 340 335 339 341 345 347 347 347 348 348 348 347 346 345 347 346 346 347 347 347 347 347 346 345 344 343 342 342 342 340 339 335 331 330 333 336 336 335 335 335 335 336 337 337 337 336 332 331 331 331
298 295 294 293 286 286 289 289 285 288 292 290 290 291 291 290 291 291 292 296 293 300 299 297 300 299 301 301 302 307 303 302 319 324 320 330 333 336 339 343 344 345 345 346 346 345 343 342 338 334 340 339 344 346 346 348 348 348 346 347 345 346 346 346 346 346 346 346 346 345 345 344 343 342 342 341 340 338 334 331 331 333 335 335 335 335 334 334 334 334 334 334 330 327 326 326 327
299 293 293 286 286 288 286 289 289 288 290 289 295 294 291 292 293 294 294 297 295 295 298 298 302 300 300 295 302 303 302 311 316 316 327 330 329 329 331 333 337 337 344 345 344 344 343 340 342 337 334 335 339 340 341 345 347 348 347 347 347 346 346 346 346 346 346 345 345 345 344 344 343 342 342 341 339 337 335 332 331 332 332 332 332 333 333 333 333 333 333 330 326 324 323 324 324
295 291 290 290 288 287 286 287 290 295 288 290 294 295 291 293 295 293 292 293 292 297 297 296 298 300 299 297 301 298 307 308 310 319 324 326 325 326 327 328 327 329 332 334 334 334 337 337 340 341 337 331 334 335 338 339 343 346 346 347 346 346 346 346 346 346 345 345 344 344 344 343 342 341 341 340 337 336 334 331 330 330 330 329 329 330 331 332 332 331 329 327 323 321 322 323 322
295 293 293 291 285 285 286 288 285 291 290 292 291 292 291 294 294 291 293 295 293 295 297 296 300 298 300 298 300 299 302 308 317 320 318 323 324 324 324 324 325 325 325 326 326 327 328 329 331 334 337 339 340 335 332 336 338 342 344 343 344 344 345 346 346 345 345 344 343 342 341 341 341 341 341 339 337 335 334 333 331 330 330 329 328 328 329 330 329 328 326 324 322 321 322 322 321
297 291 288 285 285 288 286 290 290 288 291 290 295 292 292 295 290 290 296 294 295 293 297 298 300 297 296 297 296 296 300 309 319 315 317 321 321 320 321 322 322 322 322 322 322 325 323 325 326 329 330 332 339 339 339 337 332 336 339 340 341 342 343 342 342 341 340 341 340 338 337 335 334 335 337 337 336 334 332 331 332 330 331 330 328 326 326 327 327 326 324 324 322 322 322 321 320
294 292 288 289 287 286 289 288 284 287 291 290 293 290 294 294 291 294 294 296 296 298 297 300 300 297 297 297 300 298 296 311 316 315 318 323 321 319 319 320 320 320 319 320 321 321 321 322 324 325 326 327 331 339 340 340 331 330 332 335 337 339 339 339 337 335 333 333 333 332 330 332 331 333 327 334 331 333 330 330 331 331 330 330 329 326 323 322 322 322 322 322 322 321 321 320 319
294 293 290 284 289 287 289 289 288 290 290 290 290 292 295 294 295 295 294 294 298 297 295 297 298 297 295 296 299 298 300 307 315 314 319 322 323 321 320 320 319 318 318 317 319 319 318 319 320 323 325 326 327 331 340 342 337 329 330 327 330 334 335 334 332 326 324 323 326 323 327 337 337 338 338 336 325 334 324 325 329 330 330 329 328 326 323 321 321 321 320 320 319 317 316 316 316
292 290 286 288 284 287 289 291 291 290 292 293 291 292 294 293 295 298 296 296 293 295 296 296 296 297 298 297 299 300 301 314 316 318 318 319 319 321 322 319 321 320 317 316 316 318 317 317 319 321 323 323 324 328 334 340 337 334 339 337 336 333 328 326 331 336 330 334 323 332 337 336 338 338 336 331 335 333 330 323 327 330 330 329 328 326 323 322 322 322 322 320 318 314 310 309 309
289 284 286 290 285 290 292 291 292 293 296 292 292 290 293 294 295 297 295 294 293 297 296 295 297 297 298 301 301 307 312 316 318 317 317 318 319 321 321 317 316 314 316 315 315 314 316 315 316 319 320 321 323 326 329 337 338 338 339 339 336 329 332 334 336 334 335 335 336 336 335 336 337 336 335 332 333 324 330 323 327 328 330 328 327 324 322 323 323 322 321 318 315 312 310 309 308
289 290 291 283 288 290 290 290 292 290 292 292 292 291 292 294 295 295 297 292 292 295 294 295 295 298 297 301 302 308 315 316 316 314 314 316 319 321 319 317 315 315 314 313 312 313 314 314 314 317 319 320 322 325 326 331 338 339 339 338 338 337 335 335 335 335 335 335 336 336 336 336 335 335 326 323 326 334 330 322 323 323 324 323 322 322 322 321 320 319 317 315 312 311 310 308 307
292 289 286 290 287 293 293 288 290 289 291 291 291 290 293 294 292 295 292 294 294 294 293 298 298 297 297 299 300 307 312 314 312 310 311 312 313 313 317 315 314 312 311 311 312 312 312 312 314 315 317 320 322 324 325 328 331 338 338 337 336 335 335 335 336 336 335 336 336 336 336 335 334 333 332 331 333 333 333 332 330 328 324 321 317 318 317 316 315 315 314 313 312 311 309 308 307
288 291 290 289 287 293 293 288 289 289 288 291 289 294 294 293 293 292 293 294 295 295 296 295 297 296 297 300 300 304 311 312 312 310 310 310 312 312 307 308 307 307 307 311 311 311 311 311 313 314 317 319 322 323 325 327 328 334 338 338 336 335 335 335 335 335 335 335 335 335 335 335 333 332 332 332 332 333 332 331 329 327 324 321 319 318 317 316 315 315 313 312 311 310 308 307 306
293 291 288 288 288 294 290 289 289 288 290 290 291 293 293 293 294 289 292 296 295 292 293 293 293 294 297 301 300 304 308 310 311 310 308 306 306 306 307 307 309 310 308 310 309 309 309 311 312 313 316 318 321 324 324 327 330 333 338 338 336 335 335 334 334 335 335 335 334 334 334 333 333 332 331 331 331 332 330 329 327 326 323 321 320 317 317 317 316 314 313 312 310 309 307 306 305
289 292 290 293 287 294 290 291 287 287 290 290 291 293 294 292 295 291 291 295 294 292 292 293 294 293 298 300 301 305 307 308 310 310 305 306 305 305 305 307 305 305 308 308 309 308 309 311 311 313 316 317 319 322 325 330 332 333 336 336 337 334 334 334 333 333 333 334 334 334 333 333 332 331 329 328 327 329 328 328 327 325 324 322 320 318 317 317 316 315 313 311 309 307 306 305 303
292 292 291 291 289 290 288 287 287 287 289 290 290 293 294 291 293 290 292 295 293 295 295 296 295 296 298 300 300 302 304 305 308 306 301 301 301 302 301 300 302 305 308 307 308 309 310 310 312 313 314 315 319 322 327 329 329 331 330 334 335 330 334 333 333 332 332 332 334 333 333 333 332 330 328 326 327 326 326 328 328 325 325 323 320 319 318 317 316 314 312 310 308 306 305 303 302
292 294 290 290 292 290 290 289 288 288 292 289 293 292 291 290 291 293 297 295 290 294 296 295 296 297 298 299 300 301 302 304 304 303 303 301 300 302 302 302 303 305 307 307 308 309 310 311 313 313 313 316 319 323 328 327 327 328 326 327 327 328 332 330 331 331 331 331 331 333 334 333 331 329 326 326 326 325 326 325 325 324 323 322 321 319 319 318 316 314 312 309 307 305 304 303 302
291 290 290 292 292 290 291 293 291 290 292 290 293 291 292 291 292 294 291 292 292 295 295 294 296 297 297 298 298 299 300 302 303 303 300 300 300 302 303 302 303 306 306 307 308 309 311 312 313 313 313 316 319 322 326 325 324 324 324 323 324 325 324 326 326 327 327 328 329 330 331 331 329 327 325 324 323 323 323 322 321 321 321 320 320 319 319 318 316 314 311 308 306 304 303 302 300
290 290 291 292 289 291 290 291 292 292 296 288 293 292 291 292 292 295 295 293 292 295 294 295 295 296 297 297 298 298 298 299 299 300 303 301 302 301 302 303 304 304 305 306 308 310 311 311 312 313 313 317 319 322 322 322 321 321 320 321 319 320 321 323 322 323 322 324 325 326 325 327 326 324 322 321 320 319 318 318 318 319 318 318 318 316 315 314 313 312 310 308 306 304 302 301 300
291 290 295 291 287 295 290 293 290 290 295 290 291 293 291 291 291 296 291 292 293 293 293 293 294 294 294 295 296 297 298 298 298 298 302 304 303 301 303 303 304 304 305 307 308 309 309 311 311 312 315 318 319 320 320 319 318 317 318 318 317 317 318 319 320 319 321 322 324 325 324 323 323 322 321 319 317 318 317 316 315 314 315 315 314 313 312 311 309 308 308 307 305 303 301 299 300
292 291 291 291 287 288 291 289 289 292 294 288 292 289 289 291 295 294 292 292 292 293 294 293 293 293 293 293 294 296 296 296 297 299 300 300 300 300 302 302 302 305 306 307 308 309 310 310 311 313 315 316 316 316 316 316 315 315 314 316 316 316 315 315 314 316 317 317 318 320 320 320 321 320 318 316 317 316 314 312 311 311 312 311 310 310 309 309 308 308 307 306 304 301 299 298 297
293 290 286 285 286 287 290 289 290 293 291 290 293 289 289 289 290 290 288 291 293 294 295 293 292 292 293 293 294 295 296 297 298 299 298 298 298 298 300 301 301 303 306 307 308 309 308 309 311 311 313 313 313 312 313 313 313 313 313 313 313 313 313 312 312 312 314 314 314 314 317 318 318 317 317 316 314 313 309 307 306 305 305 306 306 307 307 308 308 307 306 303 302 300 298 297 296
284 289 284 280 286 283 286 290 289 293 292 289 293 289 292 293 295 291 288 290 291 293 294 293 292 292 292 292 293 294 296 296 296 296 297 297 297 297 299 300 301 302 305 307 308 308 308 309 310 310 311 310 309 308 308 309 309 308 308 308 310 310 310 310 310 310 311 311 312 311 311 313 315 315 314 312 310 309 306 304 303 303 304 303 304 305 306 306 306 306 306 304 300 298 296 294 293
281 287 283 286 284 282 288 290 286 289 290 292 292 291 287 291 291 289 289 291 290 291 292 292 292 292 292 293 293 294 295 296 296 295 296 296 296 297 298 300 301 303 305 307 307 307 307 308 308 308 308 307 305 305 305 305 306 306 305 305 306 307 307 307 307 307 307 308 310 308 309 309 310 310 311 310 309 307 305 302 301 302 302 303 303 304 304 305 305 304 304 305 302 296 294 292 291
284 283 285 281 285 284 286 287 289 288 291 290 291 289 291 292 291 288 289 290 290 290 292 293 292 292 292 293 293 293 294 295 296 297 296 295 296 296 298 300 301 303 305 307 307 307 307 307 307 306 305 305 304 303 303 303 302 303 303 302 301 301 302 304 304 305 305 305 305 305 308 307 307 307 307 306 305 303 302 301 299 299 300 301 300 300 301 303 304 303 300 300 297 294 292 290 289
281 286 285 286 283 283 285 286 290 290 288 289 287 288 291 293 294 294 291 289 290 292 293 294 293 293 293 292 292 293 294 294 296 297 297 295 295 296 298 300 302 303 305 307 307 307 306 305 305 304 303 303 302 301 301 301 301 301 301 300 300 299 299 300 302 302 302 303 303 303 304 306 304 304 303 302 301 300 299 299 298 298 298 298 299 299 299 300 301 299 297 295 295 294 292 291 289
282 284 282 281 286 284 285 287 286 289 288 288 287 290 292 293 293 294 292 288 290 292 292 291 292 292 292 292 293 293 294 294 296 297 296 296 296 296 298 300 302 304 306 307 306 306 305 304 303 303 302 301 301 300 301 301 301 301 299 299 298 298 298 297 298 300 299 300 301 302 301 301 301 301 301 300 300 299 297 296 296 296 296 297 297 297 297 298 297 295 294 293 292 291 291 290 290
284 283 282 282 284 285 285 285 286 286 289 288 290 289 289 291 292 294 294 289 289 290 290 292 293 293 293 293 293 294 294 295 297 296 295 295 295 296 299 301 302 304 306 307 306 305 304 304 303 303 301 301 300 300 301 302 301 300 301 299 296 296 296 296 296 297 297 297 299 300 299 298 299 298 298 298 296 295 294 294 294 295 296 297 297 297 298 297 297 296 294 293 291 289 289 290 290
286 283 286 285 284 287 287 291 287 286 289 285 285 286 288 289 291 292 291 289 291 291 291 292 293 294 294 294 294 294 295 295 293 293 293 294 294 296 298 300 302 304 305 305 305 305 303 304 304 303 300 300 301 303 302 303 303 303 301 296 295 295 295 295 294 294 295 296 296 297 297 296 297 297 296 296 295 294 293 294 293 293 294 294 295 296 297 296 295 294 293 291 293 290 289 291 290
284 287 284 286 285 284 287 286 285 286 288 287 284 286 289 290 292 294 293 292 293 293 294 296 295 295 294 294 294 295 294 294 293 294 293 293 294 295 298 300 303 305 305 305 305 305 304 304 305 302 300 300 302 302 301 299 299 298 297 295 294 291 292 294 293 293 293 294 294 294 295 295 294 294 295 294 293 293 293 292 292 293 293 294 294 294 295 295 294 294 293 291 289 289 288 288 289
284 283 285 285 282 286 284 283 286 288 288 285 283 286 288 290 291 292 294 294 293 293 293 294 295 295 296 296 296 295 295 295 293 293 293 292 293 295 297 299 302 304 303 303 304 305 304 304 304 301 300 301 301 298 296 295 294 294 294 293 293 293 291 292 292 293 293 292 292 293 294 293 293 293 293 292 292 292 292 292 292 293 293 295 294 293 293 293 294 294 294 293 292 289 289 288 287
284 286 283 283 285 284 286 284 285 285 287 284 286 287 288 290 291 293 292 287 290 293 293 292 293 293 295 296 295 295 296 295 294 293 292 292 292 294 296 299 302 303 303 303 304 305 304 304 303 302 301 301 298 295 294 293 292 291 291 292 292 292 292 292 291 291 290 291 291 292 292 292 291 291 292 292 291 291 291 291 291 291 292 292 294 293 292 292 293 294 294 293 294 291 286 286 286
282 283 288 288 286 286 284 284 287 285 282 284 284 282 280 282 284 287 291 289 292 292 292 294 295 294 294 293 294 295 295 295 295 294 293 293 293 294 296 299 301 303 303 304 304 305 304 304 302 301 301 299 294 293 293 293 293 291 291 293 293 293 291 292 293 293 290 290 290 289 289 290 289 290 290 290 290 290 290 290 290 290 290 290 292 291 289 289 290 291 293 293 292 292 289 286 285
284 284 285 289 287 286 286 285 287 280 280 286 284 283 280 282 290 292 287 286 290 293 292 294 294 295 294 294 295 295 294 294 293 293 293 292 293 293 295 298 301 302 303 304 304 304 304 303 302 302 300 297 294 293 293 294 295 297 298 300 300 298 296 293 291 292 290 288 288 288 288 288 288 289 289 289 289 289 288 288 289 289 289 289 288 288 288 289 289 289 288 290 290 289 290 287 286
282 283 282 285 286 286 285 286 286 283 282 284 285 285 283 283 288 292 289 290 292 292 294 295 296 296 296 296 295 294 294 293 294 293 293 293 293 293 294 297 300 302 303 303 303 303 303 302 301 301 298 295 294 294 294 294 295 296 297 297 297 299 298 294 288 288 287 287 286 286 287 287 287 287 287 287 287 287 287 287 287 288 287 287 288 288 287 286 287 287 288 288 288 289 290 286 285
282 285 283 284 286 284 283 284 283 283 282 282 284 284 284 281 282 285 286 289 289 291 293 295 296 296 296 296 296 295 295 294 293 293 292 292 292 293 295 297 300 302 303 302 302 302 302 301 300 298 296 294 293 294 294 295 296 297 297 296 294 291 289 287 287 287 286 287 286 286 286 286 286 286 286 286 286 287 287 287 287 287 287 286 286 286 286 286 286 286 286 287 286 286 287 287 286
285 283 284 283 283 282 282 281 285 281 279 281 282 284 279 284 284 287 284 286 287 290 293 294 295 295 295 294 294 293 292 291 291 292 292 292 293 293 295 298 300 302 303 302 302 302 301 300 298 297 296 294 294 293 294 294 295 295 295 294 291 288 287 286 286 285 286 286 285 285 285 285 285 285 285 285 286 286 286 286 286 286 286 285 285 285 285 285 286 286 286 286 286 285 285 286 286
286 285 287 285 281 281 280 280 279 278 275 283 283 284 284 281 284 288 288 288 290 292 292 293 294 294 294 292 292 290 290 289 290 290 291 292 292 293 295 298 300 302 302 302 300 300 299 298 298 296 295 293 293 293 294 293 294 294 294 293 291 288 287 286 284 284 285 285 284 284 285 284 284 284 285 284 285 285 285 286 285 285 285 285 285 285 285 285 285 285 285 285 285 285 285 285 284
287 286 283 285 284 278 279 271 276 275 277 281 280 283 284 280 280 284 288 286 286 290 291 292 292 293 292 291 289 288 288 288 288 289 289 290 291 292 295 297 299 300 300 300 298 298 298 297 297 296 293 293 292 293 293 293 293 293 293 292 290 289 288 287 288 285 285 285 285 284 284 283 283 284 284 284 284 284 285 285 285 285 284 284 284 284 284 284 284 284 284 284 284 284 284 284 283
286 285 286 279 275 272 272 273 275 273 278 279 279 283 282 283 287 285 286 289 291 289 291 293 293 293 293 292 290 287 287 286 288 288 289 290 291 291 294 297 299 299 299 300 298 297 297 297 296 295 292 292 292 293 293 293 292 292 291 290 291 289 290 291 291 288 286 285 285 284 283 283 283 283 283 283 283 284 284 284 284 284 284 284 283 284 283 284 284 284 284 284 284 284 284 284 284
286 287 283 278 272 272 270 266 263 269 276 278 279 281 281 283 286 292 294 295 294 292 291 292 293 294 295 293 288 287 286 286 287 288 289 289 290 292 294 296 298 299 298 297 297 296 296 296 295 295 293 292 292 292 293 292 292 291 290 290 290 289 289 288 288 287 286 286 285 284 284 284 283 284 283 284 284 283 284 284 284 284 284 283 283 283 283 283 284 284 284 283 283 283 283 283 283
288 285 288 283 277 271 267 264 274 278 277 276 277 277 277 278 285 288 291 292 289 289 290 291 291 292 293 290 287 286 286 286 286 287 288 289 290 291 293 296 298 298 298 297 296 296 295 295 295 295 293 292 292 292 292 291 291 291 290 290 290 289 288 288 288 287 286 286 285 285 285 284 284 284 284 284 283 283 283 283 283 283 283 283 283 283 283 283 283 283 283 282 281 282 282 281 281
286 284 284 279 283 278 277 272 268 269 271 273 273 280 281 285 285 287 287 286 287 287 288 289 291 293 291 291 289 287 287 287 286 287 288 289 290 291 292 295 297 298 297 297 296 295 295 294 294 294 294 292 291 291 291 291 291 290 290 289 288 288 288 287 287 287 286 286 285 285 284 284 284 284 283 283 283 283 283 283 283 283 283 282 283 283 282 282 282 282 281 281 281 281 281 281 280
283 286 283 285 283 282 272 272 271 272 270 278 272 280 283 284 287 292 293 287 289 288 289 288 290 293 292 293 290 286 287 287 287 287 288 288 288 290 291 294 296 297 296 296 296 296 295 294 293 293 292 292 291 291 291 291 290 289 289 288 288 287 286 286 286 285 285 285 285 285 284 284 283 283 283 283 282 282 282 283 282 282 282 282 282 282 282 282 282 282 281 281 280 280 280 280 280
285 280 284 284 284 283 281 276 270 268 273 276 274 281 283 279 284 283 288 289 291 290 291 291 290 289 289 293 290 286 287 287 287 287 288 288 289 289 291 293 295 296 296 296 296 296 295 295 294 293 292 291 291 291 290 290 289 288 288 288 287 287 286 286 286 285 285 284 284 283 283 283 283 283 283 282 282 282 282 282 282 281 281 281 281 281 281 281 281 281 280 280 280 280 279 279 279
285 282 286 287 280 279 280 274 275 270 269 274 275 277 279 283 285 286 287 286 289 291 291 290 291 292 292 293 290 286 285 286 286 287 287 287 288 289 290 292 294 295 296 296 295 295 295 294 294 294 292 292 291 291 291 290 289 288 288 287 286 286 286 285 285 284 284 284 283 283 283 283 282 282 282 282 281 281 281 281 281 280 280 280 280 280 280 280 280 279 279 279 279 279 279 278 278
287 288 287 286 284 275 277 281 273 277 271 267 277 273 284 284 285 286 291 290 290 290 288 289 292 293 294 293 290 287 286 286 286 286 287 287 288 289 290 291 292 293 294 295 294 294 294 294 293 293 292 292 291 290 289 288 288 288 287 287 286 286 285 284 284 283 283 283 283 283 282 282 282 282 282 281 281 281 280 280 280 280 279 279 279 279 279 279 279 279 279 278 278 278 278 277 277
284 285 283 286 281 283 281 279 277 278 268 267 269 278 285 286 287 286 290 289 290 290 290 290 291 292 292 292 290 287 286 286 286 287 287 287 287 288 288 290 291 292 293 294 293 293 293 293 292 292 291 289 289 289 288 288 287 287 286 285 285 284 283 284 283 283 283 283 282 282 282 282 282 281 281 280 280 280 280 280 279 279 279 279 278 278 278 278 278 278 278 277 277 278 277 277 277
289 288 286 288 284 280 278 279 280 271 276 275 270 280 288 285 285 290 289 288 289 289 291 292 291 290 289 288 287 288 288 287 287 287 287 287 287 287 288 289 290 290 291 292 293 292 292 292 292 291 291 289 288 287 287 287 286 286 285 285 284 284 283 283 283 282 282 282 282 282 281 281 281 280 280 280 280 279 279 279 279 278 278 278 278 278 278 278 278 277 277 277 277 277 277 276 276
Wind_Speed
6 5 4 2 2 1 3 8 1 2 3 0 1 1 1 1 1 3 3 2 0 1 2 1 1 3 1 2 4 6 2 5 4 5 1 1 1 2 1 2 4 5 6 6 6 6 3 4 4 3 7 9 10 10 9 9 9 9 9 11 11 11 12 12 13 13 14 14 14 15 15 15 16 16 16 15 15 15 15 15 15 15 15 15 16 17 17 16 16 16 16 16 16 16 17 18 19
4 5 2 1 1 1 0 1 5 4 6 3 2 2 3 2 1 4 3 4 1 0 2 4 5 7 7 7 8 4 3 2 5 1 2 2 4 1 3 1 3 9 7 6 6 3 3 3 3 3 8 10 10 9 8 9 9 8 9 11 11 11 12 12 12 13 13 13 14 15 15 15 16 15 15 14 14 14 14 15 15 15 15 15 16 17 17 17 16 16 16 16 17 17 17 18 19
3 6 0 2 3 5 3 5 1 1 4 1 3 5 1 3 3 3 6 1 4 5 2 3 3 3 2 2 2 1 2 2 3 1 2 2 2 1 5 2 3 7 8 6 6 5 5 4 4 6 8 10 11 10 9 9 8 9 7 9 11 11 11 12 12 12 13 14 14 14 15 15 15 15 14 13 14 14 14 14 14 15 15 15 16 16 17 18 17 17 17 17 17 18 18 18 19
1 5 1 3 0 4 2 5 4 6 1 4 1 3 3 3 5 4 3 3 6 2 2 0 1 1 0 3 1 1 3 1 2 1 1 2 1 3 4 3 3 6 5 6 6 6 5 5 5 5 7 10 11 10 8 8 9 9 7 7 8 10 11 11 12 12 13 13 14 15 15 15 15 14 14 13 14 14 14 15 15 15 16 16 16 17 18 18 17 18 17 17 17 17 17 18 19
1 3 1 2 5 2 4 2 4 3 0 5 3 3 5 6 3 2 0 1 3 1 2 1 2 3 0 3 2 1 3 0 2 2 2 3 2 3 5 4 4 6 6 5 5 5 5 5 5 4 8 10 11 10 9 8 9 9 7 9 9 8 9 11 11 12 13 13 14 14 15 15 15 14 13 13 14 14 14 15 15 15 16 17 17 18 18 18 18 18 18 18 18 18 19 19 19
4 3 5 3 1 3 6 2 2 1 3 6 2 2 5 7 5 6 2 3 5 4 3 2 0 2 1 2 2 1 3 2 2 2 2 2 2 5 5 4 3 5 6 5 5 4 4 5 4 3 8 10 11 11 9 9 9 8 9 10 10 9 9 10 11 12 12 13 14 14 15 14 14 13 12 13 13 14 14 15 15 16 16 17 17 18 18 19 19 18 18 18 19 19 20 19 19
2 3 6 4 4 4 3 4 3 2 0 5 1 1 7 6 4 5 1 0 1 3 3 0 1 1 3 1 1 2 2 1 2 2 5 3 5 6 3 3 5 6 6 4 4 4 4 3 4 6 7 8 10 10 10 11 10 10 9 9 10 10 9 10 10 11 12 12 14 14 14 14 14 13 12 13 14 14 15 15 15 16 17 17 17 18 18 18 19 19 18 18 19 20 19 19 19
2 1 3 4 1 4 3 2 2 4 1 5 1 3 4 7 5 4 4 2 1 2 1 2 1 1 1 1 2 1 2 3 3 2 3 4 5 5 3 4 7 7 6 5 4 3 4 5 5 5 6 9 8 8 9 9 10 10 10 10 10 10 9 10 10 11 11 12 13 14 14 14 13 13 13 13 13 14 15 15 16 16 16 17 18 18 19 19 19 19 19 19 19 19 19 19 19
6 8 1 6 4 4 3 3 1 3 7 2 6 6 3 6 7 6 4 2 1 2 1 2 1 1 2 1 2 1 2 2 4 4 3 4 3 2 3 5 6 8 8 7 5 5 4 5 5 5 5 8 8 9 9 11 9 9 10 10 9 9 10 10 10 10 11 11 12 13 13 13 13 13 13 13 13 14 15 15 16 16 17 17 18 19 19 19 19 19 19 19 20 20 20 19 19
3 1 0 3 4 3 2 1 2 3 2 3 2 1 5 4 5 1 2 1 2 2 3 1 1 0 2 2 0 3 3 4 3 1 2 1 2 2 4 7 7 7 8 8 5 5 4 5 4 1 2 5 9 8 9 9 9 8 9 9 10 9 9 9 10 10 10 11 12 13 13 13 13 13 13 13 13 14 15 15 16 17 17 17 18 19 19 19 19 19 19 19 19 19 19 19 19
1 6 3 4 5 3 3 3 4 4 2 5 7 8 5 6 5 2 3 1 1 3 1 2 0 3 2 1 3 2 4 2 5 4 1 1 3 4 4 5 6 6 8 7 6 5 6 5 7 5 3 4 5 6 7 8 8 8 9 8 10 10 10 9 10 10 10 11 11 12 13 13 13 13 13 13 13 14 15 15 16 16 17 17 17 18 18 18 19 19 19 19 19 19 19 19 19
1 2 2 4 3 5 5 6 2 4 6 2 2 0 5 7 3 2 1 3 3 2 3 5 0 6 1 3 1 2 3 4 4 3 1 3 4 5 5 4 5 5 4 5 4 3 5 5 3 3 3 3 3 4 4 6 7 8 6 7 8 9 10 10 10 10 10 10 11 11 12 13 13 13 12 13 13 14 15 15 16 17 17 17 17 17 17 18 18 19 19 18 19 19 20 20 19
4 2 7 6 1 1 2 3 2 2 3 4 4 0 4 6 4 5 5 1 1 2 3 6 2 0 1 2 1 4 4 4 2 2 2 4 4 4 5 6 6 6 8 7 7 5 6 5 4 4 2 2 6 6 1 3 5 6 6 6 7 8 8 9 10 10 10 11 11 11 10 11 11 12 12 13 14 14 15 15 15 16 17 17 17 18 18 18 19 19 19 19 20 20 21 20 20
5 6 5 2 1 4 5 2 2 3 4 3 3 1 4 2 2 5 8 4 4 4 1 1 2 2 1 1 1 3 4 3 3 3 2 6 5 6 6 4 6 7 8 7 6 4 3 5 4 4 3 3 2 4 2 1 3 5 6 6 7 7 7 7 8 8 9 9 10 9 9 10 10 11 11 13 14 14 14 13 15 16 17 17 17 18 18 18 19 19 19 19 20 21 21 21 20
4 2 7 6 2 1 2 5 9 6 5 3 2 5 3 1 2 4 7 4 6 2 2 0 2 2 3 5 2 4 5 6 5 3 4 7 7 5 5 3 5 6 5 5 4 5 3 4 4 4 4 4 3 4 2 2 4 7 3 6 7 8 7 8 8 8 8 9 10 11 10 10 9 10 10 11 11 12 12 13 15 16 17 17 17 18 18 18 18 19 19 20 20 21 21 20 20
6 6 5 4 2 4 3 2 1 4 5 6 1 3 4 1 2 4 3 1 1 0 0 3 1 2 0 3 1 1 2 3 4 4 5 9 7 5 4 5 5 5 4 4 5 4 3 4 2 3 4 3 3 2 6 6 3 3 5 5 6 6 7 8 9 9 8 10 10 11 11 10 8 8 10 9 11 11 11 11 12 13 16 17 17 17 18 19 19 19 19 20 20 20 20 20 20
2 4 3 4 2 3 3 4 6 4 4 5 3 3 4 2 0 1 1 2 3 1 2 1 2 2 5 3 0 2 1 4 2 5 6 7 6 5 3 3 4 4 3 4 3 2 3 3 3 2 4 4 3 2 5 5 7 6 3 6 7 6 7 8 9 10 9 8 10 10 10 9 7 5 6 6 9 8 10 12 12 13 16 16 16 17 18 19 19 20 20 20 20 20 19 20 20
1 2 6 1 3 4 7 8 11 2 5 4 4 5 6 2 1 1 1 4 3 1 1 4 3 7 5 3 1 2 2 4 7 9 7 8 5 6 6 3 5 5 3 2 3 3 3 2 2 1 4 5 4 3 1 4 4 7 6 3 4 5 6 7 7 6 7 7 9 8 7 7 6 5 5 6 5 7 8 12 12 13 15 14 16 17 18 18 19 19 20 20 19 18 14 9 11
5 2 3 6 5 5 8 4 7 3 2 5 3 2 3 4 7 3 2 1 1 1 3 1 5 7 3 3 2 4 6 5 8 7 9 10 8 9 7 5 3 4 3 1 1 3 2 1 2 2 5 4 3 3 2 2 7 7 7 5 4 5 5 6 6 6 6 7 7 8 7 6 6 5 4 5 5 8 9 10 11 11 13 14 16 18 18 19 19 19 19 18 17 15 9 7 8
1 3 2 3 9 2 6 6 8 3 3 6 5 2 1 1 3 2 2 2 1 6 5 2 4 9 8 4 2 5 7 8 7 8 9 9 9 9 8 8 5 4 3 1 0 1 2 1 3 4 4 3 2 2 2 2 3 6 7 6 5 4 4 5 6 5 7 7 6 7 6 6 7 6 6 9 7 6 7 10 13 14 13 13 15 12 15 16 18 18 17 14 11 7 8 8 8
1 2 2 2 4 1 2 7 4 4 1 5 4 1 1 1 3 3 4 2 5 8 9 8 11 13 9 8 6 6 9 7 8 7 8 9 7 5 6 5 5 3 1 1 1 1 1 2 2 1 2 2 1 1 2 2 1 4 7 6 5 4 4 4 5 6 7 7 6 6 7 7 7 7 7 5 6 6 5 5 6 6 6 7 11 7 7 8 8 8 8 8 7 8 8 7 7
4 1 1 1 2 1 1 6 2 3 0 7 3 6 4 1 1 2 8 7 8 7 7 11 9 5 7 10 8 6 9 9 9 10 10 10 11 10 4 3 1 1 2 2 1 1 2 1 0 2 2 1 1 2 1 3 2 3 5 7 6 5 6 6 6 6 7 8 6 6 6 6 7 7 7 6 5 7 6 6 6 5 6 6 7 7 6 7 7 8 8 8 7 7 8 7 8
2 1 0 4 2 1 1 1 3 4 3 5 5 3 3 3 1 2 5 10 5 4 1 4 6 5 5 3 8 8 11 12 11 13 11 10 8 7 6 4 4 5 2 2 0 1 2 3 4 3 3 3 3 2 1 2 3 3 4 6 7 7 5 6 6 7 7 8 8 7 6 6 6 6 6 5 5 5 7 7 6 5 6 6 5 7 7 6 7 8 8 8 7 8 9 8 8
5 2 0 1 3 0 1 0 3 1 8 5 3 1 2 3 4 1 3 11 5 2 4 5 6 4 4 8 10 12 12 14 14 11 8 8 8 9 7 7 4 1 1 1 0 0 0 1 1 1 1 1 2 3 2 2 3 2 2 4 5 5 6 5 4 4 6 8 8 8 7 6 5 6 5 5 5 4 6 7 7 6 6 5 5 5 7 6 8 8 9 9 9 8 9 9 8
3 1 2 1 1 1 1 3 3 1 1 1 3 4 1 4 2 1 9 11 5 2 2 0 2 5 5 7 10 9 9 8 9 8 5 4 5 3 3 2 3 3 5 3 1 0 1 1 2 2 2 2 2 3 3 2 2 1 1 3 4 5 4 5 5 4 5 6 8 9 7 7 6 6 6 5 6 6 5 4 5 7 7 6 7 6 6 7 8 8 8 8 7 8 8 9 9
0 0 2 1 1 4 1 3 2 1 1 2 3 1 1 3 1 5 14 8 3 1 2 2 4 6 8 9 10 10 10 11 7 8 9 5 4 5 6 5 4 5 5 3 2 1 1 1 1 2 3 3 3 3 5 3 2 1 2 2 3 3 5 4 6 6 5 5 6 8 9 7 6 6 6 6 6 6 7 5 4 5 7 6 8 7 5 6 7 9 8 9 9 8 9 8 9
2 2 1 3 1 1 2 2 0 0 0 1 2 1 0 2 2 9 2 2 3 3 1 0 3 7 7 7 7 8 9 11 10 5 3 5 6 7 7 5 5 5 3 4 2 1 1 1 3 3 3 4 3 5 5 3 3 1 4 3 3 3 1 6 4 4 4 4 4 6 6 7 8 7 6 6 5 6 7 8 4 5 7 6 6 7 6 7 7 7 6 9 9 9 8 8 9
4 2 2 3 8 2 2 0 1 1 0 2 2 1 0 2 2 12 1 0 1 4 2 2 3 6 6 7 7 6 6 6 5 6 12 11 11 9 8 8 7 5 5 4 3 2 1 2 3 4 4 4 5 6 3 4 3 2 3 5 4 1 2 4 4 4 5 4 3 5 5 6 8 8 8 5 7 6 6 7 5 6 5 6 7 7 8 8 8 9 7 8 9 9 9 9 8
0 1 1 4 7 1 5 0 2 1 1 3 2 0 2 1 9 8 1 0 0 2 4 3 5 6 6 6 6 6 7 6 6 8 12 9 5 6 8 6 6 6 3 4 3 2 3 2 2 3 4 5 6 6 4 4 3 3 1 6 4 2 3 4 4 3 4 5 6 7 7 8 7 8 9 8 7 7 7 8 6 6 6 6 6 6 9 8 8 8 7 8 9 9 10 10 9
0 6 2 3 6 4 2 1 2 1 1 2 1 5 7 11 17 3 0 3 1 2 5 7 6 6 6 6 6 7 6 7 9 10 7 6 5 6 7 6 5 5 4 3 3 3 2 2 1 1 1 4 3 2 2 4 4 4 1 3 4 3 3 5 4 2 4 5 5 6 7 7 8 7 9 8 7 7 7 7 7 7 6 8 6 5 7 7 8 9 8 8 7 8 10 9 9
1 1 5 1 2 3 2 0 0 3 0 1 1 4 6 8 10 7 5 5 5 6 8 7 7 7 7 7 7 9 9 8 9 8 8 6 6 5 7 5 5 5 4 3 3 3 2 1 1 1 2 4 4 3 3 4 5 4 3 2 4 4 3 4 4 3 2 4 5 6 6 7 9 9 8 9 7 8 7 7 5 5 5 6 5 5 6 6 7 8 7 10 8 8 9 8 9
3 1 3 3 2 4 8 1 4 4 1 1 2 4 10 10 13 3 4 2 1 9 7 7 8 8 7 7 8 9 10 7 9 9 8 8 7 6 7 7 6 5 6 5 4 3 3 2 2 3 3 6 4 4 3 4 5 4 3 2 3 5 4 4 4 4 2 3 5 6 6 5 7 9 9 8 9 6 6 7 6 5 6 5 5 6 6 8 6 7 7 8 11 9 9 9 8
6 1 3 1 1 5 8 1 2 2 1 0 5 8 3 6 4 3 1 4 2 5 10 9 10 9 8 9 8 9 9 11 9 10 10 9 7 7 7 7 7 7 6 6 4 3 3 2 3 4 4 5 5 5 5 5 4 5 5 3 2 5 4 5 4 4 4 2 6 5 6 6 6 6 8 10 11 8 7 6 6 6 5 6 6 6 6 5 7 10 8 5 7 10 9 11 9
3 2 2 3 2 1 2 4 0 0 1 4 2 2 10 4 6 4 2 5 4 6 11 11 10 9 9 8 9 10 10 10 13 13 12 10 8 8 6 6 7 7 6 6 5 5 4 4 4 4 4 4 4 5 4 5 4 5 5 4 3 5 4 4 5 4 4 3 5 5 5 8 6 5 6 7 8 8 8 9 6 7 6 6 7 6 6 7 6 10 10 7 7 9 9 10 10
1 1 0 3 1 3 6 1 0 1 2 3 1 7 16 14 12 12 7 7 6 10 11 10 9 9 9 9 9 12 11 12 17 10 8 10 9 9 8 7 7 7 6 6 7 4 4 4 4 5 5 5 5 5 6 6 6 6 6 5 4 5 4 4 6 5 3 3 6 5 5 7 7 5 7 8 7 7 7 7 7 7 6 7 7 7 7 7 8 9 11 10 6 5 8 8 10
2 7 5 3 2 3 4 6 3 3 1 4 6 9 11 13 12 12 6 7 8 11 8 9 11 10 10 10 11 10 12 15 13 4 8 9 10 10 9 7 7 7 6 7 7 5 5 6 4 4 4 5 5 5 5 5 4 5 7 5 6 5 4 5 5 4 2 4 3 5 5 5 8 5 6 8 9 8 7 6 8 7 6 7 8 9 7 6 11 11 8 12 12 9 7 9 8
6 5 4 2 2 7 4 4 4 1 0 8 11 9 9 14 14 14 9 2 6 9 12 12 12 11 11 11 13 14 12 17 1 8 9 11 12 10 8 8 8 9 9 10 8 8 8 7 8 8 6 5 6 6 5 7 7 5 4 4 5 3 3 4 5 3 3 3 3 4 7 5 6 7 4 7 8 7 6 5 6 6 5 5 6 8 8 9 8 11 10 8 14 13 8 5 4
2 4 2 2 2 8 4 0 2 1 3 4 1 2 10 14 15 15 7 2 12 12 13 14 15 13 11 12 14 14 15 4 4 5 7 8 9 9 8 7 9 13 11 9 10 9 8 9 10 8 6 6 6 8 6 6 4 4 6 5 5 5 4 3 4 2 3 3 3 4 6 5 4 4 6 7 7 7 8 6 6 7 6 6 6 7 9 9 11 11 11 10 3 10 7 2 2
3 3 2 0 7 5 11 2 2 1 2 9 5 7 11 12 14 16 13 13 11 10 13 16 14 13 12 12 14 14 8 12 7 9 7 9 9 9 9 8 9 11 11 12 10 10 11 9 8 8 6 7 7 5 4 3 3 4 4 5 4 5 3 3 3 3 3 4 4 3 4 6 5 3 6 8 8 8 7 7 6 7 7 9 10 9 9 10 9 12 10 12 9 3 5 2 2
4 3 2 7 3 1 6 1 2 0 3 3 2 9 10 11 13 18 19 12 10 11 14 15 12 14 16 17 14 12 13 13 11 12 12 9 9 9 8 9 11 11 11 11 12 12 9 9 8 8 7 6 6 4 5 5 7 8 8 6 5 3 6 5 5 4 4 4 5 3 4 4 3 6 6 8 5 6 7 8 8 8 8 6 10 11 10 10 9 8 8 9 11 10 3 3 4
2 5 4 3 3 6 6 5 3 1 1 2 4 8 8 9 12 10 4 3 4 13 9 11 14 14 16 11 8 12 15 11 11 10 9 10 11 13 12 9 10 12 13 12 12 12 8 12 10 10 8 8 6 7 7 8 9 8 7 8 7 9 7 5 5 4 2 2 4 3 4 6 1 4 8 7 7 8 7 6 7 7 7 6 7 10 9 9 8 8 9 9 8 12 6 3 3
3 7 11 8 6 6 3 3 5 8 4 3 2 6 4 4 6 12 10 6 9 7 6 13 14 12 10 13 18 14 10 11 12 11 13 14 14 11 10 12 13 11 13 11 10 9 9 9 10 11 8 8 6 7 9 8 8 11 8 8 7 7 7 6 8 11 7 6 5 2 4 6 2 4 6 7 6 7 8 7 8 8 8 6 6 8 8 7 8 9 7 7 8 3 9 6 5
0 5 8 11 5 2 1 1 2 3 3 1 1 1 10 2 7 11 4 4 12 10 8 14 12 12 9 12 12 11 11 10 7 6 9 12 13 11 10 13 13 11 10 9 9 9 10 9 10 11 10 8 7 9 10 7 8 11 14 12 12 13 12 5 2 3 5 4 4 4 4 6 3 3 6 6 6 6 7 7 7 8 7 7 6 7 8 8 6 6 4 5 6 8 7 9 8
4 1 3 3 4 5 4 3 5 5 2 5 0 2 8 8 8 10 2 8 13 12 17 16 14 14 13 12 11 9 9 8 8 10 10 11 12 14 14 11 10 11 10 10 10 10 13 12 12 12 9 8 7 8 9 8 8 10 7 7 8 9 9 10 7 5 3 5 5 4 4 5 5 3 6 6 6 6 6 7 6 7 8 6 6 6 7 6 6 4 5 6 6 5 7 10 9
3 1 4 5 6 5 5 4 3 0 4 10 1 0 2 6 4 3 1 8 8 14 17 16 14 13 12 10 9 9 8 8 9 9 11 11 12 12 10 11 10 10 11 12 12 10 10 10 11 10 9 8 8 10 9 8 7 8 8 7 8 4 5 6 6 5 5 5 7 4 5 5 4 5 4 6 6 6 6 7 7 7 8 7 6 6 6 7 9 9 8 7 8 5 5 8 7
1 6 7 7 7 6 4 4 4 2 3 12 6 5 2 15 6 3 3 1 8 12 13 14 13 12 9 7 6 5 4 3 4 6 7 8 9 10 10 9 10 11 10 10 10 9 9 10 12 12 13 8 9 10 8 8 7 6 7 8 10 9 8 6 5 6 5 5 6 5 5 5 4 5 4 4 6 5 6 6 7 8 9 8 6 8 8 9 9 9 9 9 8 9 4 6 8
8 4 8 5 8 4 3 6 3 2 4 11 8 12 8 10 3 9 8 8 9 9 7 8 9 10 8 5 4 5 5 3 3 3 4 6 7 8 9 12 11 10 9 11 10 10 10 12 13 14 13 7 8 9 9 9 8 6 7 9 12 13 11 10 9 6 5 6 6 6 5 5 4 5 4 4 4 6 6 6 7 8 7 7 8 8 8 8 7 8 8 9 9 9 7 7 7
6 2 4 3 1 6 2 4 4 1 10 1 4 7 6 11 4 8 8 5 5 8 8 8 8 9 7 3 3 3 3 1 2 4 5 6 7 8 9 11 11 12 11 13 11 10 10 10 12 15 10 8 8 8 8 8 8 8 6 11 12 13 16 13 16 12 10 10 9 8 5 5 5 4 4 5 5 5 6 6 7 8 8 8 8 6 7 8 7 8 7 7 7 8 8 8 7
4 6 7 4 4 5 3 2 2 5 9 0 4 1 4 17 11 6 8 10 11 9 10 10 9 10 9 3 2 2 1 3 4 5 6 6 9 10 11 11 11 12 13 15 15 12 11 12 13 14 12 9 9 8 8 7 9 8 7 9 11 10 14 16 15 15 11 11 9 8 8 7 6 6 5 6 6 7 6 8 7 7 7 6 8 8 8 8 8 8 8 8 8 9 7 8 7
5 8 6 6 1 1 6 4 2 6 9 4 1 0 8 2 8 16 21 20 15 9 12 11 10 12 12 3 1 1 0 4 5 5 6 7 8 9 10 11 11 10 11 12 14 13 12 11 14 14 13 10 8 8 8 8 7 8 6 8 10 12 11 11 10 9 9 9 10 11 10 9 8 8 8 8 7 7 5 6 7 7 6 7 8 8 8 7 7 8 8 8 8 6 6 9 8
10 3 11 9 8 7 5 4 5 8 7 2 5 1 8 4 4 1 10 9 6 7 8 7 8 13 11 3 1 1 2 5 5 6 7 9 9 10 10 10 10 10 11 12 12 13 11 11 12 15 14 13 10 10 9 8 8 7 6 7 10 11 11 9 9 8 8 9 6 8 8 8 8 7 8 7 7 6 6 6 6 7 7 7 7 7 6 6 6 7 7 7 6 5 7 7 7
2 3 5 4 10 6 5 4 4 1 3 5 2 7 5 6 3 6 6 7 8 4 8 6 12 13 8 8 7 5 6 6 6 7 8 8 8 8 8 8 9 10 12 11 12 12 12 12 11 14 15 14 11 12 11 11 9 8 8 10 10 10 8 6 4 4 5 6 9 9 9 9 7 7 6 7 6 6 6 7 6 6 6 5 5 5 6 6 6 8 7 7 8 4 8 8 7
5 6 7 6 2 6 5 2 1 1 3 12 3 10 8 8 7 12 11 5 9 5 7 7 12 13 6 10 3 5 6 6 7 8 8 8 6 7 8 9 9 10 11 12 13 14 15 12 12 13 12 12 11 12 12 11 9 9 9 9 8 7 8 9 8 9 9 8 6 7 8 9 9 7 7 6 6 5 4 5 6 6 5 5 5 5 6 6 7 7 7 8 8 6 7 8 6
9 4 8 2 2 4 5 6 2 2 5 9 2 11 8 3 14 3 0 8 12 8 11 11 7 6 7 9 4 7 8 8 8 7 6 6 7 8 8 8 9 11 12 12 13 12 11 11 13 13 12 15 13 12 12 12 12 11 10 11 9 10 10 9 7 8 9 9 8 6 7 8 9 7 7 6 5 6 5 5 6 6 5 5 5 6 6 7 7 7 7 7 6 7 8 6 6
5 4 5 7 4 2 2 3 5 2 4 7 6 3 9 10 12 1 6 7 10 13 12 7 10 10 11 10 4 5 4 4 7 8 8 8 9 9 10 11 9 9 10 11 10 11 10 10 11 12 13 12 11 10 9 8 10 8 9 11 12 11 9 7 6 6 6 10 11 9 9 9 8 7 7 7 6 6 5 5 6 6 5 6 6 7 6 7 7 8 6 7 6 6 7 7 5
2 3 3 1 2 2 6 7 3 5 6 1 10 2 15 6 8 11 12 11 12 10 4 8 13 14 12 8 3 6 7 8 8 8 8 9 9 10 11 12 12 12 11 10 11 10 12 11 11 11 10 10 10 11 10 10 10 9 8 8 8 8 8 10 10 9 8 8 10 11 9 9 8 7 6 6 6 6 6 7 6 6 6 6 7 6 6 7 7 7 6 6 6 6 8 8 6
2 3 4 1 0 2 4 1 4 5 5 3 2 11 13 7 8 9 11 10 10 10 9 8 10 10 10 7 4 5 6 7 7 7 7 8 9 9 9 8 8 7 7 9 10 13 12 11 11 12 12 12 12 11 11 10 9 10 10 11 10 9 9 7 9 9 8 9 8 8 7 8 8 7 7 7 6 6 6 6 7 6 6 7 8 7 6 7 7 7 6 6 7 7 8 7 7
16 16 14 16 11 5 4 9 3 2 3 5 2 14 16 4 4 8 7 8 7 8 10 10 7 7 6 5 5 7 6 7 6 6 6 7 7 8 7 7 6 8 9 11 11 10 11 12 11 11 11 11 12 11 11 10 9 9 11 10 10 8 7 6 10 10 9 8 8 8 8 8 9 7 7 7 7 6 6 7 7 7 7 7 7 8 7 6 7 7 7 4 6 7 8 8 7
Wind_Direction
321 315 311 339 49 146 54 360 160 339 54 14 337 51 172 10 261 336 238 346 251 246 227 41 165 114 203 207 169 143 200 119 214 139 212 234 248 261 345 281 262 199 165 161 161 175 175 172 182 147 136 125 110 101 103 104 104 109 105 101 103 103 100 104 104 105 105 103 100 96 92 86 79 71 66 62 59 56 56 56 57 59 61 61 63 65 67 72 78 81 83 81 83 85 85 85 84
303 312 3 48 329 53 249 147 97 355 42 80 245 101 243 275 52 223 201 207 209 260 130 120 96 91 68 83 104 139 88 299 173 263 280 224 293 150 36 1 247 167 170 161 164 173 182 180 195 181 146 126 116 112 106 110 108 100 102 101 102 104 105 106 105 104 102 101 101 99 94 89 82 76 71 67 63 59 57 57 58 59 62 64 65 66 69 74 78 81 81 82 85 85 86 86 85
355 7 337 22 25 75 95 30 306 34 88 140 270 209 348 139 206 237 224 212 166 141 38 92 143 62 39 136 45 66 158 334 255 221 232 310 162 41 356 11 218 168 171 166 164 168 179 185 190 175 148 130 123 120 118 114 110 96 92 107 113 107 105 105 106 109 107 105 101 99 95 89 85 81 76 70 65 61 59 59 60 61 63 66 67 69 72 75 78 80 81 83 85 85 83 82 82
71 42 179 67 121 29 53 31 88 122 127 198 307 264 203 170 233 217 250 233 148 74 344 7 75 238 106 49 172 143 41 151 222 217 90 70 70 323 325 316 267 164 171 165 164 163 172 174 176 162 152 131 125 120 120 113 110 106 103 104 92 100 106 108 108 103 105 105 106 100 95 91 87 83 77 71 66 62 60 60 60 62 65 67 70 71 74 76 78 78 80 85 86 85 85 84 82
61 341 82 116 109 9 101 98 126 97 324 191 167 262 250 214 180 203 230 149 249 191 25 273 96 357 211 101 124 135 191 333 291 226 273 272 280 296 302 295 210 160 161 150 159 162 172 165 175 164 150 132 124 120 120 120 115 113 106 110 112 104 104 108 110 109 106 106 103 101 96 93 91 86 79 74 70 65 62 62 61 62 66 69 72 74 75 77 78 80 83 85 85 86 85 85 85
50 30 6 76 68 165 78 77 63 176 222 152 127 219 216 211 161 196 209 298 254 220 184 160 176 183 47 318 190 65 198 107 182 266 170 248 303 308 297 301 184 171 155 143 155 167 164 180 172 180 147 138 132 132 132 132 129 124 130 131 127 121 119 115 113 113 112 111 109 104 101 99 95 89 82 77 74 70 68 66 65 64 64 69 73 76 76 75 78 81 83 83 84 83 82 83 83
257 41 2 49 35 46 159 123 179 174 203 163 235 230 199 191 212 130 258 269 255 117 179 212 100 108 80 289 2 240 234 168 70 207 178 298 309 305 297 252 168 160 153 146 135 153 168 177 190 180 151 144 143 142 143 138 138 139 136 134 134 134 126 120 119 116 115 113 110 108 108 103 97 90 83 77 75 73 71 69 69 68 68 70 73 75 76 77 79 81 81 81 78 78 78 79 76
71 142 334 98 358 42 48 152 158 175 348 182 266 261 233 201 164 154 193 147 242 208 101 181 26 126 256 25 162 296 329 211 207 256 251 282 296 294 268 207 148 160 167 154 136 129 123 170 222 188 152 146 144 145 146 141 143 145 144 144 141 139 134 127 121 119 118 115 115 113 108 104 99 92 84 78 75 73 71 70 71 71 71 74 75 75 76 78 80 82 82 80 80 79 75 70 70
6 84 257 71 59 25 65 84 226 246 287 279 274 227 305 180 164 130 177 241 316 228 157 188 243 122 225 54 170 294 279 262 277 282 278 270 292 279 194 177 157 158 170 166 144 126 142 176 211 176 151 150 147 149 157 148 147 150 149 147 142 143 137 129 122 116 113 114 112 111 108 105 102 95 87 82 78 75 74 74 74 75 75 75 76 77 77 79 80 80 80 76 74 71 69 70 69
41 39 182 108 133 45 15 283 103 186 238 233 244 232 193 175 164 44 172 264 227 120 202 57 187 185 149 182 319 277 180 211 275 193 283 325 333 147 172 166 160 158 167 167 141 162 130 121 45 57 138 173 151 156 162 156 154 149 151 150 147 134 132 130 121 117 118 116 113 114 113 110 105 98 89 85 81 78 78 79 79 80 81 79 78 78 77 77 80 82 80 79 74 72 71 69 68
6 22 137 78 34 107 161 219 266 315 254 303 278 244 215 157 132 145 158 229 19 166 240 138 158 157 155 252 199 318 307 291 160 166 301 23 58 110 133 148 161 163 159 161 153 160 142 160 141 2 134 232 130 139 158 162 158 154 152 152 148 136 138 132 123 119 120 119 121 121 119 115 109 100 92 86 82 80 81 83 83 84 85 84 83 82 81 81 83 83 82 78 76 73 71 70 69
46 27 13 97 145 151 215 160 246 280 302 338 160 295 198 150 105 121 188 152 199 273 179 169 294 144 108 328 267 210 311 111 164 154 182 103 74 61 78 70 91 66 133 142 112 116 133 140 150 167 353 222 126 124 168 173 167 155 149 150 141 144 142 135 131 127 126 126 126 124 124 119 113 105 97 91 86 84 83 84 85 87 87 86 85 86 85 85 84 84 82 78 76 74 73 72 71
110 91 86 81 172 130 159 113 212 308 344 273 174 241 150 122 179 192 170 101 93 110 279 202 126 59 257 195 238 312 137 192 209 160 122 114 102 86 76 77 67 71 72 68 72 56 86 100 120 146 211 95 153 181 205 197 168 152 146 135 140 136 137 140 139 136 131 130 126 124 122 116 111 107 101 95 90 87 85 84 85 86 85 84 84 84 84 85 84 84 81 79 78 77 75 73 71
116 175 122 137 37 116 135 165 347 162 255 242 270 115 186 136 238 177 131 144 206 169 235 235 148 160 263 1 255 177 201 181 194 129 129 119 109 91 83 68 73 68 59 54 70 49 69 96 90 98 94 140 170 116 98 51 97 158 138 131 136 135 135 134 136 135 127 119 119 116 115 113 114 108 101 98 96 90 88 86 86 86 84 83 84 85 86 85 86 86 85 83 81 79 76 73 71
106 170 83 117 61 107 236 135 198 165 226 185 172 141 166 271 104 157 162 158 247 209 313 215 204 128 235 157 280 211 173 196 156 130 137 118 102 82 81 71 81 71 71 70 70 51 27 83 95 77 71 60 129 166 148 311 69 59 97 135 139 138 133 128 128 122 116 116 119 117 113 109 107 104 101 100 97 93 90 89 88 89 88 84 83 85 87 88 87 86 85 84 82 79 77 74 71
133 93 80 102 167 143 221 127 1 104 252 177 199 232 106 348 209 136 243 164 196 320 27 196 94 211 48 178 142 282 259 184 160 138 142 118 103 88 99 92 76 66 66 68 61 49 5 42 41 98 80 70 42 194 161 194 100 75 55 85 102 120 125 124 125 114 106 110 109 109 109 111 107 103 105 100 98 99 97 97 93 92 92 89 86 87 89 90 90 89 87 85 83 81 79 75 72
66 83 68 52 180 176 210 156 148 195 239 243 278 191 162 199 201 257 86 101 126 199 344 228 210 54 202 199 209 273 265 263 187 129 126 124 129 125 94 102 93 66 49 51 55 43 37 27 22 48 55 50 48 342 162 179 163 161 105 107 111 119 115 111 111 111 110 108 114 111 114 122 125 117 110 104 103 108 110 103 99 96 95 93 91 91 91 91 91 89 88 85 82 78 75 73 71
54 75 113 145 199 157 200 178 186 213 129 209 189 202 122 176 174 185 133 47 43 341 276 297 294 248 214 233 199 241 275 184 172 156 147 141 151 152 152 154 147 141 92 74 46 37 39 7 356 63 75 38 12 337 323 178 155 155 183 142 121 114 114 125 132 135 130 130 123 125 128 131 133 126 114 114 113 114 108 107 106 104 99 96 94 93 93 92 90 89 87 85 83 79 74 73 71
83 130 89 207 175 237 169 189 185 119 228 165 174 146 154 208 146 200 110 268 4 237 266 1 304 286 279 260 316 141 163 183 177 175 165 159 169 168 172 166 165 138 140 98 58 21 20 322 323 46 73 52 2 335 322 233 162 168 175 161 130 111 121 135 138 144 141 141 140 133 133 136 137 134 129 126 122 112 110 108 101 94 95 97 97 96 96 93 89 86 84 83 83 82 77 74 73
197 116 190 253 205 221 209 177 183 226 141 135 149 184 162 188 143 142 214 172 66 215 219 274 262 253 227 222 109 148 165 174 188 183 181 177 181 172 172 181 177 173 119 156 113 339 358 350 358 13 61 55 11 324 321 290 192 178 162 162 156 143 136 150 149 154 145 146 143 140 143 142 142 141 130 126 118 119 110 100 98 94 88 84 86 86 85 84 86 82 79 80 79 73 80 78 76
211 71 164 226 180 100 219 187 229 205 125 141 126 100 127 235 201 165 167 119 248 251 230 192 213 229 225 202 168 169 177 179 196 197 192 190 197 205 183 182 171 148 140 228 216 125 38 3 351 6 41 31 353 347 318 292 13 229 151 150 152 165 159 159 162 156 150 147 143 145 151 145 145 146 148 145 138 131 120 120 112 101 98 93 94 87 94 92 87 85 81 72 75 79 78 77 80
96 55 201 181 166 51 273 204 164 157 295 110 112 135 215 91 78 134 154 186 230 210 233 213 227 218 182 189 190 170 186 192 199 202 203 193 191 196 190 169 160 207 218 203 106 63 11 327 355 352 45 61 321 307 283 315 321 263 173 152 148 164 164 174 167 159 159 149 147 147 153 147 149 151 154 153 148 144 139 134 118 109 105 103 105 99 96 99 95 93 87 82 78 78 78 73 70
95 338 269 202 219 109 306 213 219 139 125 130 138 211 92 149 194 187 187 214 230 220 196 223 237 216 224 144 149 174 190 201 203 206 198 198 198 200 197 196 175 180 179 159 16 357 330 343 14 3 6 343 319 301 304 291 261 248 232 153 156 161 165 167 173 167 163 154 151 152 162 151 152 153 153 154 153 146 142 133 123 111 110 111 113 116 109 104 103 98 93 90 87 84 81 77 73
104 157 267 245 174 354 286 286 139 115 134 186 190 66 154 132 230 112 215 242 226 224 260 248 242 242 192 157 187 187 192 198 206 207 202 201 191 196 191 190 204 106 188 185 141 184 219 305 308 16 14 307 286 286 253 240 254 207 238 148 155 150 158 171 165 189 156 158 155 158 157 155 154 151 147 134 131 118 135 130 124 115 109 116 117 108 118 116 106 100 101 98 91 86 88 84 78
83 94 216 217 125 276 310 154 113 135 146 46 112 133 226 186 198 51 246 244 242 286 48 9 124 145 169 182 189 200 200 206 213 210 213 219 198 199 211 232 200 173 197 199 211 333 310 291 327 327 310 249 244 248 239 212 220 150 118 171 157 150 164 170 168 164 162 166 165 158 155 157 152 146 137 138 134 117 109 113 122 122 123 125 118 109 114 116 108 106 107 102 97 94 90 88 86
118 110 116 20 40 335 175 62 56 55 66 119 108 267 291 252 271 250 246 250 228 235 76 56 115 142 182 198 198 196 200 206 198 200 208 197 193 189 216 202 184 198 200 172 174 205 249 231 250 285 269 276 265 246 209 164 184 182 118 133 107 150 178 174 165 163 164 173 162 161 157 155 150 138 135 137 131 134 131 111 99 115 119 119 117 119 118 108 112 114 112 110 107 99 92 88 87
121 109 95 119 317 310 20 155 322 321 187 192 176 264 223 328 101 276 9 313 124 99 85 18 159 191 203 207 208 213 203 207 200 164 159 207 212 204 206 203 201 209 176 188 177 196 239 286 281 253 247 239 261 248 193 156 144 140 154 137 82 136 246 151 154 148 148 149 158 142 144 148 141 138 133 138 127 130 130 126 111 119 122 120 118 115 113 107 99 97 106 112 109 105 98 93 89
46 133 145 28 347 115 2 44 1 341 241 183 175 226 308 309 88 244 199 175 312 176 210 239 208 224 222 225 220 218 225 227 201 183 201 197 206 192 201 193 197 204 190 199 188 176 237 236 260 261 240 241 238 230 177 149 142 146 220 112 94 69 158 151 118 119 132 123 119 126 115 133 135 132 130 127 128 124 122 120 120 113 103 115 116 117 111 104 106 105 94 99 103 101 101 91 84
206 192 174 308 358 3 359 310 320 10 270 156 156 3 281 171 229 243 295 269 63 180 216 239 237 242 246 246 247 237 224 221 208 213 219 215 194 187 207 198 184 190 205 182 193 156 235 264 264 259 243 227 217 203 168 135 117 119 253 118 122 99 121 106 101 122 125 122 126 124 131 134 136 133 130 129 124 127 126 118 101 103 112 107 108 104 107 108 106 106 102 101 104 104 100 96 89
352 35 78 354 2 338 325 302 349 122 267 84 354 274 251 236 239 234 310 149 84 255 254 236 241 248 250 251 248 255 244 232 224 224 221 219 203 192 208 201 196 189 177 194 157 196 213 250 225 258 190 142 138 123 141 118 109 86 47 115 114 116 82 87 74 80 118 112 114 125 126 134 134 129 129 124 123 122 112 105 116 115 114 111 109 112 108 113 114 112 113 99 92 97 100 102 100
130 276 63 79 17 273 298 94 317 159 215 67 61 233 271 283 274 270 303 194 174 239 243 245 243 248 245 244 249 245 248 224 237 231 225 221 215 202 207 203 197 203 170 166 191 204 198 194 182 147 132 109 96 90 83 97 88 87 104 92 122 103 88 81 80 74 89 112 116 104 117 132 130 127 130 129 127 125 119 111 94 104 104 109 98 90 107 99 105 103 116 111 106 93 94 94 95
24 57 297 324 155 279 294 235 177 171 353 73 108 277 255 261 267 293 323 154 182 242 257 255 251 245 241 245 246 248 249 241 242 238 222 217 204 203 200 205 194 190 188 169 182 180 178 156 144 125 119 104 86 76 72 81 89 78 74 83 96 93 96 84 65 55 39 112 111 94 73 96 124 134 133 126 118 115 118 116 112 108 111 100 95 98 106 111 106 98 90 109 113 106 103 93 85
358 69 272 249 42 267 332 46 266 339 104 354 184 243 340 298 279 323 342 163 169 244 265 262 257 253 247 241 240 249 260 256 248 229 217 205 203 199 202 200 194 190 178 170 170 178 164 145 137 128 121 113 107 97 88 81 83 83 67 50 81 89 86 93 79 69 65 31 96 93 94 85 84 113 124 128 123 117 108 101 109 104 100 103 104 104 97 104 114 109 100 93 110 118 106 101 92
300 20 203 205 191 270 266 310 105 350 110 204 265 230 246 248 284 275 323 171 162 230 257 259 255 254 245 247 244 244 242 245 247 230 209 194 192 197 199 199 191 183 186 165 182 180 168 153 135 116 106 105 104 105 100 98 85 88 79 58 43 73 72 79 82 76 88 78 95 88 112 105 94 91 107 115 109 118 121 119 103 105 109 103 100 100 98 93 96 115 104 91 108 118 110 107 103
211 157 306 289 294 216 254 302 226 111 16 200 304 253 269 268 272 277 247 187 187 231 239 255 261 254 252 240 245 242 242 239 243 227 195 191 191 193 193 191 186 180 180 162 186 170 140 144 125 119 123 121 110 109 105 97 95 87 85 75 54 68 61 63 78 77 73 97 87 106 112 108 106 114 109 114 112 121 122 118 117 123 123 116 113 112 110 112 108 113 112 97 75 68 102 106 114
170 167 171 152 164 236 216 238 280 181 179 239 229 237 260 269 273 275 268 177 202 243 264 272 261 254 251 244 245 244 240 245 245 175 192 185 189 185 185 185 182 177 170 172 183 158 145 147 130 128 133 135 124 124 127 114 103 111 112 101 81 57 58 76 64 73 74 81 92 109 106 103 110 124 125 119 104 107 115 123 120 127 127 126 126 123 126 134 128 116 98 112 105 86 75 108 122
100 89 107 174 199 282 273 263 262 263 2 238 237 242 255 272 270 269 273 133 242 259 260 254 254 248 244 243 242 242 240 243 189 194 184 190 190 184 183 177 175 177 173 185 181 176 164 165 162 167 162 153 151 148 155 143 136 120 87 99 113 97 81 82 75 60 55 66 94 99 89 85 102 110 124 121 112 113 100 104 108 113 113 112 118 122 123 123 118 118 116 113 122 118 105 117 102
131 114 145 256 165 257 239 138 21 299 175 296 291 270 265 264 274 270 273 180 251 239 246 251 252 246 244 242 246 242 242 267 188 193 204 189 189 184 178 180 177 183 187 185 189 180 170 170 178 165 160 165 170 167 155 153 143 160 149 145 136 116 115 106 101 80 71 48 46 79 100 89 88 122 129 105 107 120 125 121 120 119 119 114 103 111 121 125 127 123 129 107 46 118 121 163 152
68 182 155 3 265 250 285 291 332 288 126 260 321 283 263 267 269 273 261 246 246 235 230 244 244 251 246 241 243 248 247 242 202 218 195 198 188 185 184 185 192 186 180 191 186 177 181 180 182 161 166 165 164 155 141 128 107 88 112 129 125 107 52 60 82 89 84 83 55 47 91 108 123 128 121 119 127 132 123 126 128 125 128 131 125 127 131 134 137 140 147 132 125 44 94 36 21
127 101 115 218 236 46 298 295 10 27 189 270 304 304 278 269 259 258 257 241 252 245 242 248 243 250 248 241 235 239 241 241 224 210 205 185 189 187 189 192 191 180 181 190 189 187 180 184 178 168 164 164 158 128 110 88 90 88 72 79 80 92 127 105 87 83 80 82 82 63 69 91 111 130 108 117 124 118 127 133 131 131 131 140 136 136 140 139 142 138 135 130 126 130 127 82 15
281 174 187 202 196 234 188 256 301 248 9 56 307 280 285 244 258 273 290 340 260 261 263 259 251 239 249 266 271 234 240 233 231 214 200 182 189 199 195 186 183 186 188 190 189 188 181 184 178 172 167 166 154 134 127 127 115 97 95 85 91 92 72 88 97 58 52 89 98 95 91 78 34 127 108 108 127 121 122 132 127 127 129 137 144 133 143 144 141 138 143 141 151 141 136 128 54
296 230 199 209 212 227 288 350 12 359 337 356 61 326 302 286 264 253 276 321 285 260 256 258 254 249 242 246 246 248 242 233 228 216 198 193 198 188 192 191 192 190 190 189 187 181 175 176 174 172 161 160 149 143 141 144 147 138 134 133 130 123 129 149 160 158 167 166 144 141 96 88 106 100 104 111 113 120 122 120 125 127 131 133 143 124 123 125 135 139 151 138 114 51 130 126 115
235 272 197 215 198 160 156 302 59 303 252 318 40 61 281 308 284 268 277 289 274 280 265 266 264 262 244 239 246 243 233 240 233 222 191 193 200 193 195 198 196 190 186 176 178 179 176 174 176 173 169 158 150 149 153 155 153 160 159 166 164 163 158 181 112 127 127 111 119 123 114 98 84 120 104 106 108 104 113 118 120 122 123 121 129 126 127 127 125 123 134 128 126 134 135 117 132
232 250 134 139 143 185 214 159 181 237 271 288 105 133 276 279 242 262 288 266 270 289 279 270 265 260 253 244 246 245 235 228 218 216 203 201 195 192 194 193 191 190 173 174 179 178 183 178 176 175 164 158 159 162 166 173 161 167 160 153 161 167 165 158 151 132 116 118 112 112 111 97 105 83 101 104 107 117 123 117 126 127 122 120 129 120 120 122 112 97 103 114 119 126 142 134 142
219 195 134 142 161 172 135 124 164 235 11 288 199 284 275 258 267 335 11 261 270 265 263 269 268 262 258 258 257 251 239 225 211 208 203 196 194 197 190 187 186 175 174 180 182 181 174 170 168 166 164 158 167 171 170 175 178 167 160 149 139 81 109 116 116 120 135 134 115 119 109 111 102 83 70 103 112 122 126 128 131 126 120 121 121 116 117 129 131 133 135 133 124 107 104 113 121
215 124 90 82 78 68 109 103 103 315 31 267 166 184 224 275 177 192 342 253 273 257 256 259 264 269 273 270 270 275 288 260 222 218 200 196 193 191 189 176 176 182 176 171 174 173 172 167 171 171 177 170 168 173 174 172 172 163 155 159 144 136 127 123 123 135 147 137 126 135 131 123 119 103 96 95 113 120 127 130 129 127 125 127 126 126 128 128 129 120 125 122 123 112 108 121 119
131 104 79 35 42 43 25 66 84 48 265 264 177 195 168 283 199 190 176 213 200 240 275 274 278 283 278 271 283 323 313 269 218 183 167 180 181 175 171 181 182 177 170 171 172 177 173 174 175 178 177 159 170 173 169 173 173 174 166 161 158 147 150 148 138 144 143 144 143 154 150 128 121 117 125 118 117 131 128 130 131 126 125 131 133 138 144 134 132 123 123 117 118 123 128 118 108
122 106 126 72 353 8 36 341 39 127 264 282 312 195 181 221 286 271 245 284 243 214 228 258 283 279 285 291 314 306 301 236 142 141 143 153 148 168 178 183 180 176 171 176 176 176 174 173 174 178 171 168 170 173 172 172 174 178 170 169 162 162 156 164 165 160 170 160 159 153 146 125 123 126 131 134 140 142 136 130 126 127 133 142 139 137 132 130 128 126 129 127 122 118 125 122 126
89 95 89 123 246 35 306 25 250 199 231 212 352 152 325 243 244 257 278 260 254 219 228 239 252 276 279 283 315 327 319 155 170 170 163 175 179 179 186 186 178 180 181 183 182 178 177 178 176 173 176 169 172 168 173 169 173 175 168 170 170 165 172 173 172 166 163 160 158 152 155 147 144 147 166 154 156 156 151 138 143 144 142 143 137 134 131 135 136 133 132 127 130 135 139 130 120
133 156 151 105 176 204 251 270 270 312 285 282 276 309 252 308 274 227 242 244 235 229 232 241 248 255 266 278 15 11 281 226 210 190 190 192 191 191 189 186 185 180 177 176 180 180 181 180 181 177 177 171 168 172 172 169 179 178 165 169 170 173 176 173 176 168 170 163 164 161 161 157 164 166 161 170 155 154 155 135 137 133 130 135 136 133 136 140 140 133 132 126 122 112 109 105 107
202 100 161 184 147 163 205 195 220 235 238 275 278 54 232 128 243 258 237 259 285 252 254 246 253 258 259 270 175 93 268 249 224 211 205 203 202 192 189 187 186 180 176 176 180 184 178 181 180 181 177 178 173 177 176 177 179 177 167 176 176 176 175 178 180 177 162 160 166 157 146 143 157 161 165 149 153 154 140 141 145 138 142 138 135 136 135 130 126 110 102 101 93 102 104 105 113
199 159 69 104 226 124 234 213 170 276 337 333 213 214 192 190 265 284 244 272 275 274 274 268 262 258 250 263 233 206 221 231 223 224 225 221 206 195 189 191 187 180 180 178 181 182 183 184 180 184 182 180 179 178 184 181 182 177 178 176 181 178 179 175 163 171 185 166 157 163 150 152 149 144 137 142 154 144 147 147 140 131 122 118 119 122 124 119 118 110 106 106 103 97 111 107 115
208 112 204 214 144 115 86 48 57 72 47 258 129 289 265 300 277 241 247 246 269 293 267 254 251 255 261 251 204 194 214 227 221 223 223 215 200 202 198 192 187 182 184 186 184 186 187 180 183 183 180 179 180 183 182 184 178 176 181 181 178 177 179 178 176 177 168 144 149 158 148 142 132 142 138 145 137 135 136 137 126 117 114 113 118 116 112 108 109 103 106 107 106 112 104 109 113
99 191 229 156 140 111 139 218 2 78 211 267 113 240 289 53 283 353 338 254 255 249 249 241 262 281 274 256 189 193 204 217 225 231 230 210 202 197 199 203 196 190 187 186 186 184 186 186 185 182 179 184 188 184 185 182 179 180 179 183 183 188 185 183 174 170 153 139 138 134 128 135 151 143 137 133 129 133 131 129 118 112 106 110 111 106 101 100 98 90 93 88 99 113 105 100 100
144 195 198 126 228 234 286 92 238 247 252 266 283 279 264 195 253 354 264 219 243 242 240 257 268 261 252 253 195 198 216 227 229 227 216 207 197 196 195 198 199 194 190 189 183 179 183 187 188 187 185 186 183 184 182 182 180 179 182 184 184 185 185 176 164 156 158 155 153 153 159 138 123 136 137 137 139 137 131 115 111 112 113 111 103 98 95 92 91 97 92 103 108 113 109 109 114
46 69 126 109 99 176 137 197 177 134 260 51 285 41 270 155 223 196 234 220 223 235 233 225 231 235 241 248 189 192 198 211 218 214 214 206 203 198 193 192 192 191 188 186 180 178 185 186 186 188 183 180 181 183 181 184 182 181 183 179 187 189 181 173 163 157 166 167 157 153 145 144 145 134 127 125 130 132 127 121 120 119 117 111 105 96 95 95 94 96 109 113 122 120 113 119 124
172 139 209 200 274 239 110 17 144 186 182 190 288 301 266 237 205 175 217 214 217 205 219 226 233 246 238 228 207 204 214 216 216 218 207 206 205 199 200 200 195 189 186 180 182 186 185 181 187 184 179 183 185 184 182 186 176 185 179 182 181 177 177 170 156 160 167 160 147 145 148 133 127 131 129 132 132 130 126 121 123 124 123 121 115 109 102 103 102 110 108 115 128 131 123 125 128
175 180 196 189 148 158 165 246 50 101 112 237 163 259 273 262 188 196 202 227 206 216 211 230 237 233 254 254 221 206 215 222 223 222 209 207 202 193 197 193 189 188 191 187 187 184 183 187 186 181 183 186 183 184 185 180 182 180 182 181 179 172 169 165 161 150 158 152 146 149 139 137 137 126 131 131 132 129 124 129 127 127 125 119 114 112 114 111 119 121 123 128 137 138 129 131 134